Location: Newark
(53.3333°N, 83.7500°E)
Time: 03:19:01
(UTC+00:00)

SR - Pass Details

Date: 21 November 2019
Orbit: 573 x 882 km, 66.7° (Epoch: 12 December)

Event Time Altitude Azimuth Distance (km) Brightness Sun altitude
Rises 12:19:17 0° 284° (WNW) 3,370 ? -17.1°
Reaches altitude 10° 12:22:14 10° 299° (WNW) 2,478 ? -17.5°
Maximum altitude 12:26:46 23° 350° (N) 1,769 ? -18.2°
Enters shadow 12:29:52 16° 30° (NNE) 2,156 ? -18.7°
